Time,B instrument,Bx,By,Bz,sigma B,Ion instrument,Status,Tp_par,Tp_perp,carrot,r_sun,clat,clong,earth_he_angle,n_p,vp_x,vp_y,vp_z,vth_p_par,vth_p_perp
1980-11-29 00:39:06,-1,nan,nan,nan,nan,1,3,nan,nan,1701,0.33698261,-4.4679832,19.224854,150.64673,nan,448.754,53.9936,4.96009,nan,nan
1980-11-29 01:22:18,-1,nan,nan,nan,nan,1,3,nan,nan,1701,0.33673036,-4.4503298,18.978088,150.79449,nan,367.396,27.51,-56.2834,nan,nan
1980-11-29 02:05:30,-1,nan,nan,nan,nan,1,3,nan,nan,1701,0.33647889,-4.4326172,18.731537,150.94247,nan,309.423,-18.0885,41.7863,nan,nan
1980-11-29 03:31:54,-1,nan,nan,nan,nan,1,3,nan,nan,1701,0.33597922,-4.3969526,18.239349,151.23935,nan,346.106,8.77681,-37.054,nan,nan
1980-11-29 04:13:59,-1,nan,nan,nan,nan,1,3,nan,nan,1701,0.33694634,-4.33073,17.029358,150.41608,nan,342.591,5.92388,-13.4955,nan,nan
1980-11-29 04:53:30,-1,nan,nan,nan,nan,1,3,nan,nan,1701,0.3367146,-4.3141985,16.805664,150.55176,nan,342.64,5.96562,-13.4955,nan,nan
1980-11-29 05:51:08,-1,nan,nan,nan,nan,1,3,nan,nan,1701,0.33517355,-4.3383284,17.451385,151.72481,nan,347.387,17.0781,40.8054,nan,nan
1980-11-29 05:51:35,-1,nan,nan,nan,nan,1,3,nan,nan,1701,0.33517355,-4.3383284,17.447479,151.72481,nan,352.386,31.4201,35.485,nan,nan
1980-11-29 05:51:56,-1,nan,nan,nan,nan,1,3,nan,nan,1701,0.33517355,-4.3383284,17.443573,151.72481,nan,360.719,26.885,46.8096,nan,nan
1980-11-29 05:52:36,-1,nan,nan,nan,nan,1,3,nan,nan,1701,0.33516777,-4.3379078,17.43924,151.72829,nan,352.572,34.2604,33.4325,nan,nan
1980-11-29 05:53:17,-1,nan,nan,nan,nan,1,3,nan,nan,1701,0.33516204,-4.3374872,17.438812,151.73177,nan,352.351,30.3234,36.4136,nan,nan
1980-11-29 05:53:57,-1,nan,nan,nan,nan,1,3,nan,nan,1701,0.33516204,-4.3374872,17.431,151.73177,nan,352.061,36.9221,34.5621,nan,nan
1980-11-29 05:54:38,-1,nan,nan,nan,nan,1,3,nan,nan,1701,0.33515632,-4.3370667,17.430542,151.73523,nan,367.513,35.2946,35.5291,nan,nan
1980-11-29 05:55:18,-1,nan,nan,nan,nan,1,3,nan,nan,1701,0.3351506,-4.3366461,17.426208,151.73871,nan,369.442,37.8526,36.502,nan,nan
1980-11-29 05:55:38,-1,nan,nan,nan,nan,1,4,nan,nan,1701,0.3351506,-4.3366461,17.422302,151.73871,nan,nan,nan,nan,nan,nan
1980-11-29 05:56:59,-1,nan,nan,nan,nan,1,3,nan,nan,1701,0.33514488,-4.3362246,17.414063,151.74219,nan,360.419,37.2262,39.3726,nan,nan
1980-11-29 05:58:20,-1,nan,nan,nan,nan,1,3,nan,nan,1701,0.33513343,-4.3353844,17.409302,151.74913,nan,370.866,8.85562,60.9104,nan,nan
1980-11-29 05:59:41,-1,nan,nan,nan,nan,1,3,nan,nan,1701,0.33512771,-4.3349628,17.401062,151.75261,nan,369.758,27.0801,53.7127,nan,nan
1980-11-29 06:01:02,-1,nan,nan,nan,nan,1,3,nan,nan,1701,0.33511627,-4.3341198,17.396301,151.75957,nan,366.286,22.2569,54.6075,nan,nan
1980-11-29 06:02:23,-1,nan,nan,nan,nan,1,3,nan,nan,1701,0.33511055,-4.3336973,17.384155,151.76305,nan,352.144,31.0676,40.7363,nan,nan
1980-11-29 06:03:44,-1,nan,nan,nan,nan,1,3,nan,nan,1701,0.33510488,-4.3332739,17.375916,151.76654,nan,355.079,27.772,50.5657,nan,nan
1980-11-29 06:05:05,-1,nan,nan,nan,nan,1,3,nan,nan,1701,0.3350935,-4.3324289,17.371155,151.7735,nan,359.785,48.8944,47.1333,nan,nan
1980-11-29 06:06:26,-1,nan,nan,nan,nan,1,3,nan,nan,1701,0.33508778,-4.3320055,17.362915,151.77698,nan,357.88,49.0923,43.5751,nan,nan
1980-11-29 06:07:47,-1,nan,nan,nan,nan,1,3,nan,nan,1701,0.33508205,-4.331583,17.354706,151.78047,nan,350.745,33.5447,49.3256,nan,nan
1980-11-29 06:09:08,1,-16.3536,24.1203,23.8072,10.6515,1,1,123813.0,125041.0,1701,0.33507067,-4.3307371,17.349945,151.78743,70.7441,370.507,52.0617,38.4855,45.2106,45.4342
1980-11-29 06:10:29,1,-30.0731,-10.1806,20.8955,6.28621,1,1,86756.7,102694.0,1701,0.33506501,-4.3303146,17.337799,151.79092,60.7087,333.529,-35.1213,38.9937,37.8451,41.1746
1980-11-29 06:21:19,1,-33.2842,9.36579,17.8816,5.72344,1,1,96372.5,103474.0,1701,0.3350023,-4.3256626,17.278473,151.82924,59.4222,323.551,3.5372,35.676,39.8873,41.3308
1980-11-29 06:22:41,1,-33.7339,7.12258,17.8274,7.20552,1,1,86676.1,100888.0,1701,0.33499658,-4.3252401,17.270233,151.83272,61.0373,319.507,-8.83438,36.1633,37.8275,40.811
1980-11-29 06:24:02,1,-34.6746,3.00508,17.2881,7.44373,1,1,90943.9,109084.0,1701,0.3349852,-4.3243942,17.265472,151.83969,68.4932,316.857,-23.5837,31.9805,38.7476,42.4364
1980-11-29 06:25:23,1,-36.329,5.77536,14.3565,6.1128,1,1,102168.0,98666.4,1701,0.33497953,-4.3239717,17.257233,151.84317,67.1853,315.628,-10.1993,30.0929,41.0691,40.3592
1980-11-29 06:26:44,1,-36.2271,9.85763,13.4305,5.79042,1,1,92312.7,100711.0,1701,0.33497381,-4.3235483,17.245087,151.84665,65.477,318.009,4.58591,26.3486,39.0381,40.7753
1980-11-29 06:28:05,1,-36.895,12.0883,10.0283,5.98455,1,1,102535.0,96009.8,1701,0.33496243,-4.3227034,17.240356,151.85362,65.0688,318.149,8.38424,20.636,41.1427,39.8122
1980-11-29 06:29:26,1,-29.9361,25.1472,12.4417,7.39161,1,1,85111.7,87608.7,1701,0.33495671,-4.3222799,17.232117,151.8571,58.6698,339.117,41.5719,24.9511,37.4846,38.0304
1980-11-29 06:30:47,1,-33.8083,-6.3,19.49,8.64839,1,1,89064.7,112111.0,1701,0.33495098,-4.3218575,17.223877,151.8606,63.7781,327.554,-37.0973,36.128,38.3452,43.0212
1980-11-29 06:32:08,1,-33.5903,16.0875,17.9708,7.96368,1,1,94366.5,95251.7,1701,0.3349396,-4.3210115,17.219116,151.86755,68.4706,330.022,26.3037,25.6686,39.47,39.6547
1980-11-29 06:33:29,1,-36.14,11.2431,18.4215,7.09915,1,1,85519.9,90418.6,1701,0.33493394,-4.3205891,17.210907,151.87105,58.3173,322.287,1.65342,42.2991,37.5743,38.6355
1980-11-29 06:34:50,1,-31.8955,27.2121,6.64697,5.61835,1,1,89809.6,101059.0,1701,0.33492821,-4.3201656,17.198761,151.87453,64.777,331.565,38.0153,10.8816,38.5052,40.8457
1980-11-29 06:36:11,1,-32.2143,26.7909,9.14416,4.98177,1,1,81534.2,102019.0,1701,0.33491683,-4.3193207,17.194,151.88148,60.0582,329.052,31.0765,16.2515,36.6883,41.0392
1980-11-29 06:37:32,1,-37.261,21.1525,3.21186,6.06578,1,1,74089.6,103196.0,1701,0.33491111,-4.3188972,17.18576,151.88498,61.177,322.87,24.6852,6.59598,34.9733,41.2752
1980-11-29 06:38:53,1,-39.2931,17.1276,0.587931,6.14005,1,1,79510.1,97001.9,1701,0.33490545,-4.3184748,17.177521,151.88846,61.8775,317.457,14.0975,4.10969,36.2301,40.0173
1980-11-29 06:40:14,1,-38.5563,18.762,-1.60986,6.49726,1,1,72211.8,97007.4,1701,0.33489406,-4.3176289,17.172791,151.89543,58.5507,315.573,20.4144,-1.69474,34.5272,40.0184
1980-11-29 06:41:35,1,-37.8926,15.8265,-6.37059,6.6466,1,1,82488.1,98527.6,1701,0.33488834,-4.3172064,17.164551,151.89891,64.3342,318.722,17.667,-5.28287,36.9023,40.3308
1980-11-29 06:42:56,1,-37.7354,14.9615,-7.90308,6.18587,1,1,74330.6,101637.0,1701,0.33488262,-4.316783,17.152405,151.90239,62.6261,316.8,14.7542,-11.9564,35.0301,40.9622
1980-11-29 06:44:17,1,-38.4919,12.4032,-8.66613,6.05369,1,1,80649.9,97754.6,1701,0.33487123,-4.315938,17.147644,151.90936,61.5925,313.46,11.3337,-12.5093,36.4888,40.1723
1980-11-29 06:45:38,1,-36.3797,10.9826,-16.3333,6.25073,1,1,84541.7,102505.0,1701,0.33486557,-4.3155146,17.139404,151.91284,63.9199,322.402,9.8106,-31.1903,37.3588,41.1368
1980-11-29 06:46:59,1,-36.1224,2.30526,-18.8632,8.24879,1,1,90495.1,115372.0,1701,0.33485985,-4.3150921,17.131195,151.91634,68.3927,324.549,-5.2762,-37.1669,38.6519,43.6423
1980-11-29 06:48:20,1,-33.1167,18.2717,-16.7733,6.35647,1,1,76026.2,102974.0,1701,0.33484846,-4.3142462,17.126434,151.92329,54.8404,323.315,20.9069,-25.6597,35.4274,41.2308
1980-11-29 06:49:41,1,-33.8455,19.3061,-14.2045,7.11114,1,1,78635.5,98982.8,1701,0.33484274,-4.3138227,17.118195,151.92677,61.8773,332.876,39.17,-29.4319,36.0303,40.4239
1980-11-29 06:51:02,1,-31.7821,18.0612,-20.003,7.13126,1,1,72402.3,116656.0,1701,0.33483136,-4.3129778,17.113434,151.93375,60.8335,331.033,22.2278,-40.4716,34.5728,43.8845
1980-11-29 06:52:23,1,-35.0,10.5719,-19.8614,7.00527,1,1,76674.0,105957.0,1701,0.33482563,-4.3125544,17.101288,151.93723,61.2241,322.848,6.36761,-39.4669,35.578,41.8238
1980-11-29 06:53:44,1,-35.1851,5.97164,-21.9254,7.46661,1,1,83535.1,90593.0,1701,0.33481997,-4.3121319,17.093079,151.94072,53.4749,322.614,0.565309,-48.2357,37.1358,38.6728
1980-11-29 06:55:05,1,-39.3319,0.371014,-15.6029,9.36216,1,1,72358.7,103568.0,1701,0.33480859,-4.311286,17.088318,151.94768,57.4811,316.912,-28.2126,-29.3498,34.5623,41.3496
1980-11-29 06:56:26,1,-40.1,-4.37313,-11.9612,8.12103,1,1,82902.0,100065.0,1701,0.33480287,-4.3108635,17.080078,151.95116,61.0948,317.16,-19.5575,-29.5695,36.9948,40.6442
1980-11-29 06:57:47,1,-39.6224,-9.61579,-9.84079,7.69412,1,1,80100.8,91972.3,1701,0.33479714,-4.3104401,17.071838,151.95465,57.6585,314.48,-33.5684,-14.846,36.3644,38.966
1980-11-29 06:59:08,1,-38.3639,-12.2,-6.79836,6.82631,1,1,77583.5,104746.0,1701,0.33478576,-4.3095951,17.067078,151.96161,62.6663,316.879,-37.094,-16.7647,35.7884,41.5841
1980-11-29 07:00:29,1,-35.5157,-12.0129,-14.0586,7.78242,1,1,93727.9,113759.0,1701,0.3347801,-4.3091717,17.054962,151.9651,60.2389,320.914,-31.7869,-32.9445,39.3362,43.3363
1980-11-29 07:01:50,1,-36.6393,-14.0967,-10.6492,9.36449,1,1,71646.1,99964.8,1701,0.33477437,-4.3087463,17.046722,151.9686,42.1359,315.789,-38.1242,-34.4422,34.3918,40.6239
1980-11-29 07:03:11,1,-36.9292,-16.0431,-10.7903,7.50082,1,1,80996.1,102900.0,1701,0.33476305,-4.3078966,17.041992,151.97557,65.5641,324.578,-47.8202,-10.3467,36.567,41.216
1980-11-29 07:04:32,1,-34.7646,-21.8092,-5.50308,9.77827,1,1,95805.7,101668.0,1701,0.33475739,-4.3074713,17.033752,151.97906,64.3508,335.554,-68.9089,-10.1367,39.7698,40.9686
1980-11-29 07:05:53,1,-38.5424,-16.378,-0.849153,11.3874,1,1,64055.4,88789.8,1701,0.33475173,-4.3070469,17.025543,151.98256,49.3598,322.252,-56.0603,-10.8207,32.5189,38.286
1980-11-29 07:07:14,1,-39.4467,-6.53167,11.9383,7.47714,1,1,87101.2,106712.0,1701,0.3347404,-4.3061962,17.020782,151.98953,66.4434,321.566,-29.9663,27.7904,37.9202,41.9724
1980-11-29 07:08:35,1,-37.6132,-2.48971,16.5544,7.46116,1,1,84839.8,110375.0,1701,0.33473474,-4.3057718,17.008667,151.99303,63.8391,322.8,-22.6917,37.7439,37.4247,42.6867
1980-11-29 07:09:56,1,-38.2717,-2.06667,14.6567,6.53022,1,1,85888.5,102598.0,1701,0.33472908,-4.3053465,17.000427,151.99652,63.2617,318.562,-20.8204,32.4706,37.6552,41.1554
1980-11-29 07:11:17,1,-35.3412,3.33529,19.5275,6.21728,1,1,84530.0,102685.0,1701,0.33471775,-4.3044968,16.995697,152.00351,62.7442,321.479,-11.0313,37.7131,37.3562,41.1729
1980-11-29 07:12:38,1,-34.0692,2.44,20.5969,6.22844,1,1,80946.3,100192.0,1701,0.33471209,-4.3040714,16.987488,152.007,58.6991,317.642,-12.4752,38.9775,36.5558,40.67
1980-11-29 07:13:59,1,-32.9351,11.3596,20.2737,6.1009,1,1,82166.5,108058.0,1701,0.33470637,-4.3036461,16.979248,152.0105,64.6032,321.072,2.8249,41.6459,36.8303,42.2363
1980-11-29 07:15:20,1,-28.5254,20.7944,17.538,8.08988,1,1,86081.2,103351.0,1701,0.33469504,-4.3027964,16.974518,152.01747,60.5738,329.675,26.6806,35.8798,37.6975,41.3063
1980-11-29 07:16:41,1,-23.8339,21.8732,17.0732,14.8322,1,1,73317.9,108935.0,1701,0.33468938,-4.302371,16.966278,152.02097,60.3169,322.131,1.03614,42.1253,34.7907,42.4074
1980-11-29 07:18:02,1,-34.9985,10.05,16.0682,8.43519,1,1,78570.9,89480.3,1701,0.33467805,-4.3015213,16.957642,152.02795,48.5532,320.909,13.5284,38.6466,36.0154,38.4345
1980-11-29 07:20:03,1,-36.648,18.29,-0.95,6.34598,1,1,87334.5,98912.7,1701,0.33466673,-4.3006706,16.949005,152.03493,56.4429,314.119,11.1009,3.62454,37.9709,40.4095
1980-11-29 07:23:36,1,-26.65,28.1,-11.3333,6.70557,1,1,76089.6,94309.0,1701,0.33464974,-4.2993956,16.924316,152.04541,53.7427,343.635,51.4226,-9.99454,35.4422,39.4579
1980-11-29 07:24:57,1,12.1571,18.6143,29.4429,6.88874,1,1,119214.0,93794.4,1701,0.33464402,-4.2989702,16.916107,152.0489,59.6493,335.111,44.9913,-20.7331,44.3631,39.3501
1980-11-29 07:26:45,1,-15.45,2.075,30.2,11.6425,1,1,89974.8,116763.0,1701,0.33463269,-4.2981205,16.90744,152.05588,53.9658,392.498,-25.5046,79.0219,38.5406,43.9046
1980-11-29 07:28:06,-1,nan,nan,nan,nan,1,4,nan,nan,1701,0.33462137,-4.2972698,16.90271,152.06287,nan,nan,nan,nan,nan,nan
1980-11-29 07:29:27,1,-34.35,19.1667,12.8,2.51092,1,1,91599.4,126979.0,1701,0.33461571,-4.2968454,16.894501,152.06636,60.9292,334.597,14.5754,43.0096,38.887,45.7851
1980-11-29 07:30:32,1,-32.7857,23.9429,8.98571,2.81157,1,1,74413.7,114049.0,1701,0.33461004,-4.2964201,16.886261,152.06985,56.2702,328.919,26.5489,31.1922,35.0497,43.3914
1980-11-29 07:31:53,1,-30.2667,24.5167,10.55,2.72448,1,1,77285.5,128587.0,1701,0.33460438,-4.2959948,16.878052,152.07335,62.3707,333.43,22.2667,33.5399,35.7196,46.0741
1980-11-29 07:33:14,1,-37.2,16.6167,3.68333,2.45346,1,1,65773.9,131962.0,1701,0.33459306,-4.295145,16.873291,152.08032,59.0552,318.21,12.6855,22.0576,32.9522,46.6747
1980-11-29 07:34:35,1,-34.3833,22.6667,-8.06667,2.85934,1,1,72897.3,111194.0,1701,0.3345874,-4.2947197,16.865082,152.08382,57.2414,321.649,17.1182,-21.0395,34.6908,42.8448
1980-11-29 07:35:56,1,-33.5833,23.1167,0.633333,1.98116,1,1,80908.2,117419.0,1701,0.33458173,-4.2942944,16.852936,152.08731,64.3355,328.781,30.0729,5.68538,36.5472,44.0277
1980-11-29 07:37:17,1,-31.9333,20.45,-17.4667,1.71958,1,1,80548.4,130775.0,1701,0.33457035,-4.2934446,16.848206,152.09428,59.911,330.327,37.2823,-19.5872,36.4659,46.4644
1980-11-29 07:39:59,1,-32.8333,13.7333,-21.7667,0.395811,1,1,68853.1,144703.0,1701,0.33455902,-4.292594,16.831757,152.10127,55.7835,318.271,13.6295,-40.8171,33.7147,48.8761
1980-11-29 07:41:20,1,-34.3667,14.0,-21.0833,3.63551,1,1,72095.7,115175.0,1701,0.3345477,-4.2917442,16.827026,152.10826,57.6888,310.469,1.22344,-24.5829,34.4995,43.6052
1980-11-29 07:42:41,1,-31.9167,16.9333,-19.2833,1.53894,1,1,71976.0,133256.0,1701,0.33454204,-4.2913189,16.818787,152.11176,58.7272,323.865,24.0932,-40.4823,34.4708,46.903
1980-11-29 07:44:02,1,-30.35,18.8,-22.8167,0.812746,1,1,66765.5,123335.0,1701,0.33453071,-4.2904692,16.81015,152.11873,57.5002,324.275,23.3505,-46.5973,33.1997,45.1234
1980-11-29 07:45:23,1,-27.85,20.1333,-23.2167,1.72514,1,1,61000.1,88235.2,1701,0.33452505,-4.2900438,16.80191,152.12222,58.9109,297.863,51.3932,-17.1193,31.7339,38.1662
1980-11-29 07:48:03,1,-29.9143,22.9857,-18.8286,0.577115,1,1,72253.9,103268.0,1701,0.33450806,-4.2887688,16.788971,152.13271,56.1304,322.149,37.247,-32.0339,34.5373,41.2896
1980-11-29 07:49:24,1,-31.7667,21.4,-16.2333,1.83424,1,1,75799.0,98592.0,1701,0.33450234,-4.2883434,16.780731,152.13618,54.172,322.393,36.7895,-31.1019,35.3744,40.344
1980-11-29 07:50:45,1,-35.9833,15.0167,-11.1667,1.37417,1,1,68756.9,95566.8,1701,0.33449668,-4.2879181,16.772491,152.13968,59.5302,300.145,69.898,-10.6547,33.6912,39.7202
1980-11-29 07:52:06,1,-30.1,23.7833,-12.9667,1.37971,1,1,71058.3,127300.0,1701,0.33448535,-4.2870684,16.767761,152.14667,68.7563,322.699,41.978,-16.2946,34.2504,45.8429
1980-11-29 07:53:27,1,-37.9833,10.45,-3.1,1.00692,1,1,79908.0,97319.3,1701,0.33447969,-4.286643,16.755646,152.15016,56.9162,306.206,16.1688,9.22423,36.3206,40.0827
1980-11-29 07:54:48,1,-38.3429,7.22857,-2.92857,0.988918,1,1,75972.3,98075.6,1701,0.33447403,-4.2862186,16.747406,152.15366,57.5502,304.044,7.0612,9.79747,35.4149,40.2382
1980-11-29 07:56:09,1,-32.3714,22.8143,-2.14286,0.92582,1,1,71450.9,87098.9,1701,0.3344627,-4.285368,16.742676,152.16063,56.2627,305.765,88.9683,8.34327,34.3449,37.9196
1980-11-29 07:57:30,1,-39.4,2.18571,-1.32857,1.77856,1,1,75545.2,96733.1,1701,0.33445704,-4.2849426,16.734436,152.16412,56.2387,306.874,-5.64578,11.6125,35.3152,39.9618
1980-11-29 07:58:51,1,-39.45,1.33333,-4.53333,0.327024,1,1,81910.9,96415.6,1701,0.33445138,-4.2845182,16.726227,152.16762,56.4932,307.896,-8.08897,8.28674,36.773,39.8962
1980-11-29 08:00:12,1,-38.8333,0.766667,-9.93333,0.718795,1,1,77055.3,99846.6,1701,0.33444005,-4.2836676,16.721497,152.17461,57.2651,305.659,-6.7898,-3.22713,35.6664,40.5999
1980-11-29 08:01:33,1,-36.2167,2.61667,-17.35,1.74029,1,1,68111.4,99676.5,1701,0.33443439,-4.2832403,16.709351,152.1781,53.4406,309.408,-8.4231,-16.6114,33.5326,40.5653
1980-11-29 08:02:56,1,-34.4667,4.43333,-20.0667,0.907377,1,1,68458.0,100645.0,1701,0.33442873,-4.2828131,16.701141,152.18161,54.039,311.32,0.973381,-22.301,33.6179,40.7618
1980-11-29 08:04:17,1,-32.9,9.75,-15.6,6.21658,1,1,75556.8,97405.4,1701,0.33441746,-4.2819586,16.696411,152.1886,51.2491,313.43,-6.33324,-33.3261,35.3179,40.1005
1980-11-29 08:05:38,1,-30.8333,4.4,-23.45,1.79482,1,1,64447.6,105465.0,1701,0.33441186,-4.2815313,16.688202,152.19211,50.0003,308.688,4.5562,-30.66,32.6183,41.7264
1980-11-29 08:06:59,-1,nan,nan,nan,nan,1,4,nan,nan,1701,0.3344062,-4.2811041,16.679993,152.1956,nan,nan,nan,nan,nan,nan
1980-11-29 08:08:20,1,-33.8667,9.28333,-14.2667,2.18461,1,1,63747.1,105966.0,1701,0.33439493,-4.2802496,16.675262,152.20261,52.7928,304.0,17.8709,-5.5564,32.4405,41.8255
1980-11-29 08:09:41,1,-26.9333,3.68333,-26.8333,1.77083,1,1,77253.3,100606.0,1701,0.33438933,-4.2798214,16.663147,152.2061,49.4888,321.233,-5.49858,-46.5045,35.7122,40.754
1980-11-29 08:13:42,1,-29.0,20.3,6.86667,4.23268,1,1,72677.7,134015.0,1701,0.33555204,-4.2295032,15.665039,151.24316,49.3705,326.308,55.0051,20.2264,34.6385,47.0365
1980-11-29 08:14:18,-1,nan,nan,nan,nan,1,4,nan,nan,1701,0.33436114,-4.2776852,16.641571,152.2236,nan,nan,nan,nan,nan,nan
1980-11-29 08:15:39,1,-25.5857,19.3429,14.7286,2.75318,1,1,77279.8,86684.7,1701,0.33435547,-4.2772579,16.633362,152.22711,40.2483,316.668,28.3746,33.9358,35.7183,37.8294
1980-11-29 08:16:24,1,-26.45,16.05,18.8,5.01248,1,1,98492.4,100993.0,1701,0.33434987,-4.2768307,16.629059,152.23061,56.6576,350.633,21.3571,67.7501,40.3236,40.8322
1980-11-29 08:17:45,-1,nan,nan,nan,nan,1,4,nan,nan,1701,0.33434421,-4.2764034,16.620819,152.2341,nan,nan,nan,nan,nan,nan
1980-11-29 08:19:08,1,-20.5143,8.45714,21.5571,17.7135,1,1,101290.0,103096.0,1701,0.33433294,-4.2755489,16.612213,152.2411,48.8181,364.266,29.8194,57.4461,40.8922,41.2552
1980-11-29 08:21:50,1,-17.2286,14.8286,28.5,1.47593,1,1,94080.6,110705.0,1701,0.33432168,-4.2746935,16.595764,152.24811,46.22,363.137,20.5017,73.0218,39.4101,42.7506
1980-11-29 08:23:11,1,-24.35,11.2875,24.9125,1.00608,1,1,103781.0,94696.5,1701,0.33431041,-4.273839,16.591064,152.25511,49.329,342.933,11.5813,70.0148,41.392,39.5389
1980-11-29 08:24:32,1,-24.8429,2.5,26.5429,3.6181,1,1,102400.0,93278.7,1701,0.33430475,-4.2734118,16.582825,152.25861,46.5668,356.28,-14.3031,76.1663,41.1157,39.2418
1980-11-29 08:25:53,1,-31.0857,1.72857,20.4857,2.54029,1,1,92481.4,106411.0,1701,0.33429915,-4.2729845,16.574615,152.26212,53.0102,338.472,0.604063,64.1484,39.0738,41.9132
1980-11-29 08:27:14,1,-29.3714,4.37143,24.0143,2.38079,1,1,96955.8,93754.0,1701,0.33428788,-4.27213,16.565979,152.2691,47.2079,348.616,-9.28247,58.974,40.0078,39.3417
1980-11-29 08:28:35,1,-24.2,11.7571,26.9286,1.42084,1,1,91471.9,92276.1,1701,0.33428222,-4.2717028,16.55777,152.27261,47.2258,359.015,13.7372,68.8873,38.8599,39.0304
1980-11-29 08:29:56,1,-26.4286,14.2143,22.0286,1.71702,1,1,89485.2,90161.8,1701,0.33427662,-4.2712746,16.549561,152.27611,44.9787,345.58,21.6614,71.0002,38.4356,38.5806
1980-11-29 08:31:17,1,-26.6667,15.5333,20.7,2.68721,1,1,93986.7,76964.3,1701,0.33426529,-4.2704201,16.54483,152.28311,39.0191,344.266,31.6747,65.4185,39.3905,35.6453
1980-11-29 08:32:38,1,-26.4167,13.15,25.1833,3.00864,1,1,91759.1,95668.0,1701,0.33425969,-4.2699928,16.536621,152.28661,51.1361,342.071,23.0959,62.0217,38.9209,39.7412
1980-11-29 08:33:59,1,-25.5875,14.65,22.075,5.72171,1,1,89936.3,103488.0,1701,0.33425403,-4.2695656,16.528412,152.29012,50.9858,341.629,2.67353,70.1374,38.5323,41.3336
1980-11-29 08:35:20,1,-20.9857,14.9286,26.7857,3.27831,1,1,93532.2,107363.0,1701,0.33424276,-4.2687111,16.519775,152.29712,52.9248,348.834,20.2594,73.3759,39.2951,42.1004
1980-11-29 08:36:41,-1,nan,nan,nan,nan,1,4,nan,nan,1701,0.33423716,-4.2682838,16.511566,152.30061,nan,nan,nan,nan,nan,nan
1980-11-29 08:38:02,1,-28.2857,13.0857,22.5429,1.00387,1,1,88231.1,96329.2,1701,0.33422589,-4.2674294,16.506836,152.30762,49.7258,337.653,12.8917,69.7962,38.1653,39.8783
1980-11-29 08:39:23,1,-32.0,11.1,18.3667,1.75373,1,1,82434.7,100020.0,1701,0.33422023,-4.2670012,16.498627,152.31111,48.7267,326.929,12.1641,60.9337,36.8904,40.6352
1980-11-29 08:40:44,1,-29.8714,20.0286,14.8714,2.00652,1,1,86027.6,87921.4,1701,0.33421457,-4.2665739,16.490417,152.31462,41.5211,341.063,34.806,57.8169,37.6857,38.0983
1980-11-29 08:42:05,1,-24.1833,23.9,17.1667,6.25942,1,1,91968.7,115571.0,1701,0.3342033,-4.2657194,16.485687,152.32161,57.8755,336.84,46.1683,39.1577,38.9653,43.68
1980-11-29 08:43:26,1,-22.9,20.3714,23.9143,1.77293,1,1,87887.6,95493.8,1701,0.3341977,-4.2652922,16.473572,152.32512,49.3657,357.248,26.4802,70.6414,38.0909,39.705
1980-11-29 08:44:47,1,-25.675,20.6375,21.3,1.96957,1,1,89254.4,99791.6,1701,0.33419204,-4.2648649,16.465332,152.32861,54.0559,342.629,27.8498,59.8791,38.386,40.5887
1980-11-29 08:46:08,1,-24.3,23.6286,15.4571,8.22949,1,1,102994.0,109400.0,1701,0.33418077,-4.2640104,16.460632,152.33562,58.2619,368.262,38.2735,65.86,41.2348,42.4978
1980-11-29 08:51:30,-1,nan,nan,nan,nan,1,3,nan,nan,1701,0.33415258,-4.2618732,16.431244,152.35312,nan,354.327,8.70319,82.248,nan,nan
1980-11-29 08:54:12,-1,nan,nan,nan,nan,1,3,nan,nan,1701,0.33413571,-4.2605915,16.414398,152.36362,nan,320.256,19.143,51.3375,nan,nan
1980-11-29 08:55:33,-1,nan,nan,nan,nan,1,3,nan,nan,1701,0.33413005,-4.2601643,16.406189,152.36713,nan,314.612,2.05037,37.6836,nan,nan
1980-11-29 08:56:56,-1,nan,nan,nan,nan,1,3,nan,nan,1701,0.33412445,-4.259737,16.39798,152.37062,nan,334.471,51.1934,-2.30401,nan,nan
1980-11-29 08:58:17,1,-36.0333,14.5333,1.53333,4.95883,1,1,84170.4,102873.0,1701,0.33411318,-4.2588825,16.39325,152.37762,55.7975,321.851,37.4665,19.369,37.2767,41.2106
1980-11-29 09:00:59,1,-31.2857,-3.98571,20.6286,2.59921,1,1,100990.0,109607.0,1701,0.33410186,-4.2580271,16.372925,152.38463,57.2923,328.227,-22.3405,66.7067,40.8317,42.538
1980-11-29 09:02:20,1,-27.9857,-18.0571,14.9286,4.66935,1,1,117807.0,120719.0,1701,0.33409065,-4.2571688,16.368225,152.39165,61.0981,346.16,-28.9746,78.8997,44.1005,44.6421
1980-11-29 09:03:41,1,-33.0667,-15.1333,10.85,4.00003,1,1,95921.5,105395.0,1701,0.33408505,-4.2567387,16.360016,152.39516,54.9201,323.633,-49.2118,51.0919,39.7938,41.7127
1980-11-29 09:05:02,1,-31.8667,-18.75,12.4333,2.57234,1,1,97672.9,104552.0,1701,0.33407384,-4.2558794,16.355286,152.40216,51.797,332.269,-43.5548,51.3838,40.1555,41.5455
1980-11-29 09:06:23,1,-33.025,-12.5125,14.85,4.41084,1,1,102305.0,102013.0,1701,0.33406824,-4.2554502,16.347076,152.40567,53.1632,329.31,-31.243,57.3772,41.0967,41.038
1980-11-29 09:07:44,1,-32.5333,-8.63333,16.8,4.70791,1,1,94237.3,107067.0,1701,0.33406264,-4.2550201,16.338867,152.40918,52.3046,327.123,-34.5312,58.8619,39.443,42.0422
1980-11-29 09:09:05,1,-33.4714,-15.2714,12.2143,2.57674,1,1,104027.0,109123.0,1701,0.33405143,-4.2541618,16.330261,152.4162,56.0154,332.043,-38.4234,57.0759,41.4411,42.4439
1980-11-29 09:11:47,1,-34.8714,-21.0714,0.271429,4.08731,1,1,95151.5,97095.0,1701,0.33404022,-4.2533026,16.313843,152.42322,58.6328,326.502,-54.7358,15.791,39.6338,40.0365
1980-11-29 09:13:08,1,-40.2286,-11.3143,-0.0714286,2.38977,1,1,78081.4,88451.5,1701,0.33402902,-4.2524433,16.309143,152.43024,47.6412,319.911,-28.9058,33.8819,35.9031,38.2129
1980-11-29 09:14:29,1,-33.0833,12.35,21.0167,3.41691,1,1,101096.0,100187.0,1701,0.33402342,-4.2520142,16.300934,152.43375,56.7378,341.171,25.976,63.934,40.853,40.669
1980-11-29 09:17:11,1,-34.3833,9.81667,17.5,6.49816,1,1,85001.1,95651.4,1701,0.33400661,-4.2507248,16.284119,152.44427,50.4278,339.449,31.7137,64.5323,37.4602,39.7378
1980-11-29 09:18:32,-1,nan,nan,nan,nan,1,3,nan,nan,1701,0.334001,-4.2502956,16.275909,152.44778,nan,319.908,5.35092,45.6271,nan,nan
1980-11-29 09:21:14,1,-27.3857,19.7429,20.1286,3.6567,1,1,135656.0,154394.0,1701,0.3339842,-4.2490072,16.263,152.45831,53.6565,343.723,4.04024,70.9913,47.3235,50.4862
1980-11-29 09:22:35,1,-23.5714,20.1286,25.4714,2.53554,1,1,97891.7,119348.0,1701,0.33397859,-4.2485771,16.254791,152.46182,54.0481,350.245,25.5583,62.0724,40.2004,44.388
1980-11-29 09:23:56,1,-20.4143,28.8,23.9429,2.23817,1,1,99736.5,107337.0,1701,0.33397299,-4.248148,16.246582,152.46533,53.5506,360.304,50.2432,61.3161,40.5775,42.0952